CAPE
0 0 0 0 0 0 0 0 0 0 0 0 0 0 11 26 52 45 26 14 6 11
0 0 0 0 0 0 0 0 0 0 0 0 0 12 32 47 48 42 29 35 11 20
0 0 0 0 0 0 0 0 0 0 0 0 0 7 40 53 44 40 24 19 18 18
4 1 0 0 0 0 0 0 0 0 0 0 0 0 4 25 19 20 21 16 7 8
5 2 1 0 0 0 0 0 0 0 0 0 0 1 2 2 0 0 3 0 0 0
0 3 2 1 0 0 0 0 0 0 0 0 0 0 0 0 0 0 0 0 0 0
0 0 0 3 1 0 0 0 0 0 0 0 0 0 0 0 0 0 0 0 0 0
0 0 0 0 0 1 0 0 0 0 0 0 0 0 0 0 0 0 0 0 0 0
0 0 0 0 0 0 0 1 0 0 0 0 0 0 0 0 0 0 0 0 0 0
0 0 0 0 0 0 0 0 0 0 0 0 0 0 0 0 0 0 0 0 0 0
0 0 0 0 0 0 0 0 0 0 0 0 0 0 0 0 0 0 0 0 0 0
0 0 1 2 1 0 0 0 0 0 0 0 0 0 0 0 0 0 0 0 0 0
0 0 1 3 3 2 2 2 0 1 1 0 1 0 0 0 0 0 0 0 0 0
0 0 0 1 1 1 5 4 4 2 3 3 3 2 2 0 0 0 1 0 0 0
CIN
0 0 0 0 0 0 0 0 0 0 0 0 0 0 -88 -117 -153 -187 -197 -196 -173 -151
0 0 0 0 0 0 0 0 0 0 -8 -4 -23 -112 -138 -130 -145 -166 -203 -191 -176 -160
-1 0 0 0 0 0 0 0 0 0 0 0 -6 -140 -116 -124 -147 -137 -163 -158 -164 -148
-8 -17 0 0 0 0 0 0 0 0 0 0 -43 -36 -87 -97 -124 -128 -122 -136 -152 -149
-14 -15 -12 -9 0 0 0 0 0 0 0 0 0 -58 -54 -89 0 -3 -113 -8 -9 0
0 -14 -16 -15 -4 -6 0 0 0 0 0 0 0 0 0 0 0 0 0 0 0 0
0 0 0 -17 -20 0 -8 0 0 0 0 0 0 0 0 0 0 0 0 0 0 0
0 0 0 0 0 -6 -7 0 0 0 0 0 0 0 0 0 0 0 0 0 0 0
0 0 0 0 0 0 0 -8 -1 0 0 0 0 0 0 0 0 0 0 0 0 0
0 0 0 0 0 0 0 0 0 0 0 0 0 0 0 0 0 0 0 0 0 0
0 0 0 0 0 0 0 0 0 0 0 0 0 0 0 0 0 0 0 0 0 0
0 0 0 0 0 0 0 0 0 0 0 0 0 0 0 0 0 0 0 0 0 0
0 0 0 0 0 0 0 0 0 0 0 0 0 0 0 0 0 0 0 0 0 0
0 0 0 0 0 0 0 0 0 0 0 0 0 0 0 0 0 0 0 0 0 0
Wind_Speed
12 8 8 11 8 9 9 9 8 9 8 9 10 10 10 6 5 6 7 8 6 5
11 12 10 12 10 8 8 7 6 8 10 9 10 11 8 6 6 7 7 8 8 6
12 13 12 10 11 12 11 12 11 10 9 9 9 10 10 8 7 10 9 8 10 10
12 13 13 11 12 12 12 11 11 12 11 13 12 12 10 11 12 13 13 12 12 14
13 13 13 12 13 13 13 12 12 12 13 13 13 13 15 15 13 13 15 15 14 16
13 14 14 14 12 13 14 13 13 14 15 15 15 14 14 15 15 16 16 16 15 17
15 13 12 13 13 13 14 15 15 15 16 16 16 16 16 16 16 16 16 16 18 18
15 14 14 15 14 14 15 15 15 15 15 16 16 14 18 17 16 17 17 17 18 18
7 9 12 13 15 15 15 15 15 17 17 17 14 18 20 18 16 17 17 18 18 18
6 11 13 13 14 15 16 15 16 17 17 18 19 18 19 20 17 16 17 18 16 16
9 7 7 11 14 14 13 16 16 17 17 17 17 14 19 21 18 18 21 20 19 19
12 11 9 9 8 7 11 13 15 13 14 16 18 7 14 15 17 19 21 19 20 15
13 11 11 10 9 6 7 9 4 10 11 15 11 20 17 9 9 14 12 3 4 10
14 12 13 11 9 8 7 8 9 11 11 13 16 13 20 18 4 6 3 4 5 6
Wind_Direction
182 184 184 183 184 187 192 199 187 194 185 180 177 181 188 189 178 178 184 180 180 192
187 185 192 194 185 183 195 194 171 182 193 185 185 187 176 187 186 187 192 198 207 198
190 193 192 186 193 197 198 193 182 181 179 181 188 188 190 195 192 196 201 202 202 219
191 194 192 193 198 201 200 194 192 201 195 193 192 195 200 207 205 206 205 206 206 217
193 188 195 195 200 201 206 205 204 203 210 209 210 209 210 211 210 211 216 212 210 218
196 196 199 206 200 201 205 209 212 208 214 217 216 216 217 220 221 222 223 222 221 224
201 202 203 203 201 200 206 209 210 213 219 221 221 221 222 222 225 228 229 227 228 227
203 203 206 210 207 205 205 210 214 216 218 218 219 220 221 223 225 229 233 232 232 230
221 224 222 219 219 217 216 214 214 217 216 219 222 218 212 216 223 228 232 236 237 239
220 215 219 218 218 220 222 222 220 221 221 226 230 217 210 209 227 230 232 235 237 239
19 6 341 225 225 225 221 221 220 225 225 229 237 218 213 209 221 231 235 234 234 234
5 4 2 9 3 312 235 226 226 227 229 230 241 319 254 212 225 234 238 239 239 241
11 13 5 2 3 351 340 330 280 64 48 37 25 15 359 341 246 234 231 193 36 6
21 18 13 1 5 7 26 45 56 66 52 49 35 31 24 22 348 312 38 61 68 64